Volver al catálogo

THORAD AGENA D DEB

ActivoLEO
NORAD 4636·DEBRIS·🇺🇸 United States

Lanzado Apr 8, 1970 desde Vandenberg Space Force Base

Loading…

Próximos Pases (próximas 24 horas)

TLE

ActualizadoSource: Space-Track

Época: Sep 14, 2026, 22:50 UTC

1 04636U 70025U   26257.95145222  .00000255  00000-0  34145-3 0  9997
2 04636 100.0736 260.3687 0032015 257.3234 131.3381 13.70541865807440

Sigue THORAD AGENA D DEB en tiempo real con AllMySat

Download on the App Store